This is the latest recevied weather packets stored in our database for station/object HB9FHL-13. If no packets are shown the sender has not sent any weather packets the latest 10 day(s).
| Time | Temp. | Humidity | Pressure | Rain* | Wind** | Luminosity | Snow |
|---|---|---|---|---|---|---|---|
| 1777079462 | 13.89° C | - | 1021.7 hPa | 0 mm | - | - | - |
| 1777079161 | 12.78° C | - | 1014.2 hPa | 0 mm | - | - | - |
| 1777078861 | 12.78° C | - | 1017.4 hPa | 0 mm | - | - | - |
| 1777078560 | 13.89° C | - | 1020.7 hPa | 0 mm | - | - | - |
| 1777078260 | 13.33° C | - | 1020.7 hPa | 0 mm | - | - | - |
| 1777077959 | 13.89° C | - | 1019.6 hPa | 0 mm | - | - | - |
| 1777077659 | 12.78° C | - | 1017.5 hPa | 0 mm | - | - | - |
| 1777077358 | 13.33° C | - | 1017.6 hPa | 0 mm | - | - | - |
| 1777077059 | 13.89° C | - | 1019.5 hPa | 0 mm | - | - | - |
| 1777076757 | 13.89° C | - | 1018.9 hPa | 0 mm | - | - | - |
| 1777076457 | 13.33° C | - | 1022.5 hPa | 0 mm | - | - | - |
| 1777076156 | 13.89° C | - | 1018.8 hPa | 0 mm | - | - | - |
| 1777075856 | 13.33° C | - | 1017.6 hPa | 0 mm | - | - | - |
| 1777075253 | 13.33° C | - | 1022 hPa | 0 mm | - | - | - |
| 1777074952 | 13.33° C | - | 1019.3 hPa | 0 mm | - | - | - |
| 1777074652 | 13.89° C | - | 1015.4 hPa | 0 mm | - | - | - |
| 1777074351 | 13.33° C | - | 1021.2 hPa | 0 mm | - | - | - |
| 1777074051 | 12.78° C | - | 1018.4 hPa | 0 mm | - | - | - |
| 1777073751 | 13.33° C | - | 1018.1 hPa | 0 mm | - | - | - |
| 1777073450 | 13.33° C | - | 1018.7 hPa | 0 mm | - | - | - |
| 1777073149 | 13.89° C | - | 1021.6 hPa | 0 mm | - | - | - |
| 1777072849 | 13.89° C | - | 1017.1 hPa | 0 mm | - | - | - |
| 1777072550 | 13.89° C | - | 1017.9 hPa | 0 mm | - | - | - |
| 1777072248 | 13.33° C | - | 1022.7 hPa | 0 mm | - | - | - |
| 1777071947 | 14.44° C | - | 1023.1 hPa | 0 mm | - | - | - |
* Rain since midnight (hover to see other rain measurements)
** Current wind speed in m/s (hover to see current wind gust speed)